Theta_e
352 352 352 350 349 350 348 348 347 347 347 347 347 347 347 347 350 353 352 351 351 350 352 352 350 347 346 348 349 350 351 351 349 348 348 348 349 350 351 350 351 351
353 353 353 351 350 350 349 348 348 348 346 347 347 346 346 345 347 352 352 351 352 352 353 352 351 349 346 346 348 350 351 351 349 347 348 349 350 350 351 350 351 352
353 353 353 352 351 350 350 349 349 348 347 347 348 348 347 345 345 348 349 350 351 352 352 351 350 349 347 347 348 348 350 350 349 348 348 349 350 349 350 350 350 350
353 352 352 351 351 350 349 349 348 348 347 347 347 348 347 345 345 345 347 348 349 350 350 349 350 349 347 347 347 347 348 348 348 348 349 349 349 348 348 348 349 350
352 351 350 350 351 350 349 349 349 349 347 346 347 347 347 347 346 346 347 349 349 349 349 350 350 348 347 348 347 346 346 346 346 346 348 349 348 348 347 346 348 350
351 350 349 349 350 350 350 349 349 349 348 347 347 347 348 348 348 349 349 350 350 349 350 350 350 350 349 349 348 346 345 346 346 346 348 349 348 348 348 347 347 348
352 350 350 351 351 352 352 350 349 348 348 347 346 347 347 347 348 349 349 350 350 349 349 348 349 350 350 350 349 348 346 346 347 347 348 348 349 350 350 348 348 347
354 353 353 354 353 353 353 351 349 348 349 348 347 346 347 347 347 348 348 348 348 347 347 347 348 350 350 350 349 349 348 347 347 348 349 350 350 350 350 349 348 347
356 356 356 356 355 352 351 350 349 348 349 349 348 347 347 347 346 346 345 346 346 347 346 346 348 349 349 349 349 349 347 347 347 347 349 350 349 349 348 348 347 348
358 358 357 356 354 352 350 349 348 348 348 348 348 347 347 347 347 347 345 344 344 345 346 345 347 348 348 348 348 348 347 347 347 348 349 349 348 348 347 348 349 349
358 357 356 355 353 352 351 350 348 348 348 348 348 347 348 348 348 347 346 344 343 343 344 345 345 346 348 347 347 347 347 347 347 348 348 349 348 348 347 348 349 349
358 356 355 355 354 353 352 351 352 351 350 350 349 349 349 349 348 347 347 346 344 343 343 344 345 346 347 347 346 348 348 348 348 348 348 348 348 348 348 348 349 349
356 354 354 353 353 353 352 353 353 353 353 352 352 351 350 349 348 347 347 346 345 344 343 343 344 345 347 348 347 348 347 348 348 348 348 348 348 348 348 348 348 348
354 353 353 352 352 352 352 353 353 353 353 352 352 351 350 348 347 348 347 347 346 346 345 343 343 345 346 348 347 347 347 347 347 347 348 349 349 348 347 348 348 347
353 352 351 351 351 352 352 353 353 352 352 352 351 351 349 348 348 348 348 347 347 346 346 346 345 345 345 345 345 345 345 346 346 346 347 348 347 347 347 347 347 346
356 355 354 353 352 351 352 352 351 351 350 350 349 349 349 348 348 348 348 348 347 347 346 347 346 346 346 345 344 343 344 345 346 346 346 346 347 346 346 347 346 346
358 357 357 355 353 352 352 352 352 352 351 349 348 348 347 347 347 347 347 347 347 347 347 347 346 345 346 346 345 345 345 346 347 347 346 346 346 346 346 346 346 346
357 357 357 356 355 354 352 352 352 351 351 349 349 348 348 348 347 347 346 347 347 347 346 347 346 345 346 346 346 346 345 345 346 347 348 347 347 347 346 346 346 346
354 356 356 354 353 351 350 351 350 349 349 349 349 350 350 351 350 348 349 348 348 347 347 346 347 346 346 346 346 346 345 345 345 346 348 348 347 347 346 347 347 347
355 357 356 354 353 351 351 352 351 350 349 348 348 349 352 354 353 352 352 351 350 350 350 350 350 349 347 347 346 346 345 344 344 345 347 348 349 349 347 347 347 347
359 360 358 353 351 351 352 353 353 353 352 351 350 350 352 354 355 353 353 355 355 355 355 356 355 353 352 350 349 347 347 346 345 345 346 347 348 348 348 349 348 348
357 358 356 351 347 345 344 346 348 349 349 350 350 350 350 351 351 350 351 353 356 356 356 356 355 355 354 354 353 353 352 350 348 347 346 346 346 346 347 348 350 351
356 356 356 354 351 348 346 346 346 345 345 345 346 346 347 346 346 347 350 354 355 355 354 355 355 355 354 354 354 354 354 353 350 348 347 346 346 347 347 347 350 352
356 354 354 354 354 354 353 352 350 347 347 347 346 347 347 347 347 350 352 354 354 354 353 353 353 353 353 353 353 353 354 354 352 350 350 349 347 347 347 348 348 349
355 354 353 352 352 352 352 351 350 349 350 350 350 351 351 351 351 351 352 352 352 352 352 352 352 352 352 352 352 352 353 354 354 352 351 351 351 350 351 352 352 350
353 353 352 352 351 351 350 350 350 349 350 350 351 351 350 350 351 351 351 351 350 350 350 349 350 350 350 351 351 351 351 352 353 352 351 351 353 353 352 353 353 352
Wind_Speed
30 29 28 28 27 26 25 22 18 18 24 29 29 27 27 27 27 26 24 23 23 22 20 19 18 18 20 19 18 17 16 14 12 11 10 12 12 10 9 9 9 9
30 30 29 28 28 27 25 23 19 16 18 25 30 29 27 26 27 28 26 24 24 23 21 20 18 18 20 21 20 19 19 18 15 13 11 11 11 11 11 11 10 10
30 29 30 30 30 29 27 25 22 18 15 19 28 31 28 26 26 27 27 25 24 23 22 21 20 19 20 21 21 20 21 21 18 16 14 13 12 12 11 11 12 12
30 29 29 29 29 30 29 27 24 21 17 16 21 28 29 27 25 26 26 26 25 23 22 22 21 20 19 20 20 21 22 22 20 18 16 16 15 15 14 12 12 13
28 27 27 27 27 28 28 28 27 24 21 18 16 21 26 27 26 26 25 25 24 23 22 22 21 20 20 20 20 21 21 22 22 20 18 18 17 17 17 16 14 14
26 26 26 25 25 26 26 27 28 25 24 22 17 15 21 25 25 25 24 23 22 22 22 22 22 22 22 21 20 20 20 21 22 21 20 20 19 18 17 16 17 17
26 25 25 24 24 24 25 25 26 26 25 25 21 16 17 21 24 24 23 22 23 23 24 24 24 24 24 23 21 20 20 21 22 21 22 22 21 20 19 18 18 18
26 25 24 24 24 23 24 24 25 26 25 25 25 21 17 18 21 23 24 24 26 27 27 27 27 26 25 25 24 22 22 22 23 23 24 24 24 24 23 22 21 22
25 25 24 24 24 23 23 23 24 25 25 24 24 24 22 19 19 22 25 28 29 30 30 30 30 29 28 27 26 25 24 24 25 25 26 26 26 26 25 24 24 25
25 24 24 24 24 24 23 24 24 25 25 24 24 24 24 23 22 22 25 28 31 31 32 32 32 32 31 30 29 28 27 27 27 28 28 28 27 26 25 25 25 24
26 25 24 25 25 24 24 23 23 24 25 25 25 25 25 25 24 24 24 26 28 30 31 32 33 34 33 33 31 30 29 29 29 31 31 30 30 29 27 27 27 25
27 26 25 25 25 25 24 23 23 23 23 24 25 26 26 26 25 25 25 25 27 29 31 31 32 32 32 32 32 31 30 30 30 32 34 33 32 31 30 29 29 26
28 26 25 24 24 24 24 24 23 23 23 25 26 26 27 27 27 26 26 26 24 25 29 32 32 30 29 31 32 32 31 31 31 33 35 35 34 33 32 31 30 28
27 25 24 22 22 24 25 25 24 24 24 25 26 26 25 25 25 23 25 26 23 19 21 26 29 31 31 32 33 32 32 32 32 33 34 35 35 34 32 31 31 30
22 22 23 22 22 24 27 27 26 25 24 24 25 26 26 26 26 23 23 25 25 23 21 20 22 26 30 34 35 35 34 33 33 34 34 35 36 34 32 31 31 31
17 18 20 21 22 23 25 26 26 26 25 24 25 26 28 29 29 26 25 26 27 29 28 25 23 22 24 30 35 35 33 32 33 34 34 34 35 34 32 31 31 32
15 16 18 19 20 19 20 21 23 25 25 24 24 24 25 27 27 27 26 26 27 29 29 29 28 25 23 25 28 28 27 27 29 32 32 32 33 33 33 32 32 32
15 15 17 19 19 19 18 19 20 22 23 22 21 21 21 23 24 25 25 25 26 28 28 28 29 29 27 26 26 26 26 25 25 27 29 31 32 33 34 33 32 32
15 15 16 18 18 16 17 19 20 21 22 21 20 20 20 21 21 21 23 24 25 27 28 28 28 28 29 28 27 28 28 28 27 26 27 30 32 34 34 34 33 32
13 14 15 15 14 12 13 16 18 19 21 21 20 19 19 20 19 19 20 22 22 22 23 24 23 24 26 27 27 27 29 29 29 27 26 27 30 32 33 34 35 34
13 13 13 13 13 13 14 15 16 17 19 18 18 18 17 16 16 18 20 20 19 18 18 19 19 19 20 21 23 24 26 27 27 27 27 27 29 30 30 31 33 35
14 14 14 14 14 16 18 18 17 18 18 17 17 18 17 16 17 19 21 21 19 18 18 19 19 19 18 19 19 20 21 23 23 21 19 19 20 22 25 28 31 33
13 14 14 14 14 16 18 18 18 18 18 18 18 19 18 18 17 17 17 16 16 17 17 19 20 20 20 20 20 20 20 20 19 15 12 13 15 16 19 22 26 29
11 11 12 12 12 12 12 11 10 10 11 13 14 15 15 13 12 12 12 13 14 15 15 17 19 19 19 19 20 21 22 22 20 17 17 19 23 25 25 24 24 25
8 8 7 7 7 6 5 4 3 3 4 5 6 7 7 6 7 8 9 10 11 12 13 15 17 18 17 17 18 19 20 21 20 18 18 22 27 30 30 27 25 24
6 5 4 3 3 2 1 1 1 1 1 0 1 2 3 4 5 6 7 7 8 10 11 13 14 15 14 14 15 16 16 17 16 16 17 20 23 24 24 25 25 26
Wind_Direction
215 215 215 215 214 215 216 214 211 211 214 214 212 213 212 212 212 212 214 216 220 225 227 229 234 234 232 231 231 230 230 236 238 237 242 240 242 249 249 254 258 259
216 215 215 216 216 217 219 219 216 214 216 217 216 215 215 215 214 215 218 221 222 225 228 232 237 236 231 231 232 230 229 234 237 236 239 238 239 248 252 255 256 259
219 219 217 217 218 219 222 224 223 219 218 219 218 217 216 216 216 217 220 223 224 226 230 234 238 237 233 232 233 232 232 234 236 236 238 239 241 250 256 257 257 259
221 222 221 220 220 221 224 229 230 225 220 218 217 218 219 218 218 219 221 224 226 229 233 236 237 238 237 235 234 234 234 235 237 238 241 243 245 252 256 259 262 263
222 223 223 223 223 224 225 229 232 230 225 222 219 219 219 218 216 218 220 223 226 231 236 239 238 236 236 237 237 236 236 238 237 238 242 245 247 250 254 258 261 264
222 224 225 226 226 226 227 228 231 232 230 227 224 220 219 218 216 215 217 220 225 232 238 240 240 239 237 237 238 238 238 239 239 239 242 245 247 249 252 257 260 263
220 223 226 228 228 228 228 229 230 231 231 229 228 225 221 220 219 216 219 225 230 235 237 239 241 240 237 236 236 239 240 240 241 241 243 246 248 250 251 256 260 261
218 221 225 228 229 230 230 229 229 228 229 228 229 229 226 224 224 223 226 232 236 238 238 239 240 238 236 235 237 239 241 242 242 242 244 245 247 249 251 254 256 257
217 220 223 226 227 228 228 228 227 226 227 229 230 232 232 231 234 235 236 237 239 240 239 238 237 237 236 236 238 241 242 243 243 242 242 243 244 247 250 251 253 256
217 219 221 223 224 224 225 226 227 225 226 228 230 233 236 237 241 244 243 240 238 239 239 238 235 234 235 236 239 241 243 244 246 244 242 242 243 245 246 248 250 254
215 214 216 220 222 223 224 224 225 224 224 227 230 233 237 240 243 246 247 244 240 238 237 237 236 234 235 237 239 241 243 245 247 245 243 242 243 244 244 245 247 251
216 213 214 218 221 223 224 224 224 222 220 222 225 230 233 235 238 243 248 250 248 243 238 236 235 234 235 236 237 239 241 244 245 245 243 242 243 244 244 243 245 249
215 214 214 217 220 222 223 225 226 225 223 222 224 228 230 231 234 242 248 249 250 247 240 236 234 232 232 231 232 237 241 243 244 243 243 243 243 244 244 244 244 246
210 211 212 214 219 221 220 220 222 224 225 225 227 228 228 229 234 242 245 241 238 239 238 236 234 232 231 230 232 237 241 243 244 243 242 242 243 244 244 244 244 245
206 206 208 211 216 218 218 218 220 222 224 224 225 226 226 230 236 242 246 243 241 240 242 242 238 237 238 238 238 240 242 243 244 243 242 242 242 243 243 243 244 245
196 199 201 205 211 213 215 220 223 224 225 226 227 229 230 233 237 242 247 250 249 249 251 250 244 243 247 246 242 241 242 244 244 243 242 243 242 241 241 241 242 245
189 196 197 202 208 211 215 221 225 225 225 227 230 233 234 235 238 242 246 248 250 251 254 252 245 244 249 249 243 241 243 244 242 241 240 240 240 240 239 241 243 245
198 203 208 213 217 219 220 220 221 222 221 224 228 231 235 238 239 242 245 248 250 252 255 254 249 246 247 249 247 246 247 247 247 245 243 241 240 239 239 241 243 245
208 208 218 225 228 230 227 220 219 221 222 224 227 230 234 237 238 242 248 251 253 254 254 255 254 252 250 250 252 252 250 250 251 251 250 247 244 241 240 242 244 245
214 213 215 218 223 228 228 225 225 229 231 232 233 233 234 234 235 242 248 249 248 250 253 256 257 256 253 253 256 256 252 249 250 250 251 251 248 245 243 243 244 245
212 212 207 203 208 217 226 233 238 242 244 244 244 244 244 243 242 245 247 246 244 246 250 254 255 254 252 253 256 256 252 250 250 250 249 249 248 248 249 248 248 247
219 218 215 209 209 211 214 220 227 234 239 242 245 247 251 252 250 247 248 248 249 251 255 256 255 253 252 253 254 255 255 253 252 252 255 258 258 256 253 252 251 248
226 227 227 224 219 214 211 209 207 210 214 218 225 231 236 242 246 249 253 258 261 264 267 269 267 264 264 263 262 261 262 260 257 256 262 276 283 278 267 260 255 251
224 225 227 229 227 226 228 227 222 222 220 218 223 231 236 244 255 265 272 275 277 278 280 281 278 276 275 273 270 267 267 270 272 270 266 266 267 268 269 269 265 260
214 213 218 226 231 238 248 255 261 268 257 244 245 253 262 272 280 284 284 284 285 286 287 287 286 284 283 280 278 274 272 274 277 272 264 260 259 259 262 265 265 262
205 205 213 211 203 199 157 127 123 117 144 258 287 285 289 290 285 286 288 287 288 287 285 285 285 285 285 282 280 278 277 279 277 266 253 252 254 255 257 260 260 258